Sierra Vista, AZ

7:28 AM MST on May 24, 2018 (GMT -0700)
Sierra Vista Municipal-Libby Army Air Field

Weather History for KFHU - May, 2009

Change the Weather History Date:

Sunday, May 3, 2009

  Actual Average Record
Temperature  
Mean Temperature 69 °F -  
Max Temperature 84 °F 79 °F 93 °F (1989)
Min Temperature 54 °F 56 °F 39 °F (1988)
Cooling Degree Days 4    
Growing Degree Days 19 (Base 50)    
Moisture  
Dew Point 32 °F    
Average Humidity 27    
Maximum Humidity 49    
Minimum Humidity 13    
Precipitation  
Precipitation 0.00 in - - ()
Sea Level Pressure  
Sea Level Pressure 29.90 in    
Wind  
Wind Speed 9 mph (WNW)    
Max Wind Speed 16 mph    
Max Gust Speed 24 mph    
Visibility 10 miles    
Events      
Averages and records for this station are not official NWS values.
T = Trace of Precipitation, MM = Missing Value Source: NWS Daily Summary

Daily Weather History Graph

Daily Weather History Graph

Search for Another Location

Airport or City:

Astronomy

May. 03, 2009 Rise Set
Actual Time 5:33 AM MST 7:02 PM MST
Civil Twilight 5:08 AM MST 7:28 PM MST
Nautical Twilight 4:36 AM MST 8:00 PM MST
Astronomical Twilight 4:04 AM MST 8:32 PM MST
Moon 2:00 PM MST (5/3) 2:10 AM MST (5/3)
Length of Visible Light 14h 20m
Length of Day
13h 28m
Waxing Gibbous, 71% of the Moon is Illuminated
May 3
Waxing Gibbous
May 8
Full
May 17
Last Quarter
May 24
New
May 30
First Quarter

Hourly Weather History & Observations

Time (MST) Temp. Dew Point Humidity Pressure Visibility Wind Dir Wind Speed Gust Speed Precip Events Conditions
12:56 AM 55.0 °F 36.0 °F 49% 29.92 in 10.0 mi WNW 6.9 mph - N/A   Clear
1:56 AM 55.9 °F 36.0 °F 47% 29.92 in 10.0 mi WNW 10.4 mph - N/A   Clear
2:56 AM 54.0 °F 35.1 °F 49% 29.92 in 10.0 mi West 6.9 mph - N/A   Clear
3:56 AM 55.0 °F 35.1 °F 47% 29.93 in 10.0 mi West 9.2 mph - N/A   Clear
4:56 AM 55.9 °F 36.0 °F 47% 29.93 in 10.0 mi WSW 10.4 mph - N/A   Clear
5:56 AM 55.9 °F 36.0 °F 47% 29.94 in 10.0 mi West 10.4 mph - N/A   Clear
6:56 AM 62.1 °F 37.0 °F 39% 29.95 in 10.0 mi West 3.5 mph - N/A   Clear
7:56 AM 64.9 °F 37.0 °F 36% 29.96 in 10.0 mi WNW 3.5 mph - N/A   Clear
8:56 AM 69.1 °F 34.0 °F 27% 29.96 in 10.0 mi Variable 4.6 mph - N/A   Clear
9:56 AM 73.0 °F 34.0 °F 24% 29.94 in 10.0 mi North 8.1 mph - N/A   Clear
10:56 AM 75.9 °F 34.0 °F 22% 29.93 in 10.0 mi Variable 4.6 mph - N/A   Clear
11:56 AM 79.0 °F 33.1 °F 19% 29.92 in 10.0 mi NNW 8.1 mph 20.7 mph N/A   Clear
11:57 AM 79.0 °F 33.1 °F 19% 29.92 in 10.0 mi North - - N/A   Clear
12:00 PM 79.0 °F 33.1 °F 19% 29.92 in 10.0 mi North - - N/A   Clear
12:56 PM 82.0 °F 33.1 °F 17% 29.90 in 10.0 mi West 11.5 mph 21.9 mph N/A   Clear
1:56 PM 82.9 °F 30.9 °F 15% 29.88 in 10.0 mi WNW 12.7 mph 20.7 mph N/A   Clear
2:56 PM 84.9 °F 30.9 °F 14% 29.86 in 10.0 mi NW 12.7 mph 24.2 mph N/A   Clear
3:56 PM 84.0 °F 28.0 °F 13% 29.83 in 10.0 mi WNW 13.8 mph 24.2 mph N/A   Clear
4:56 PM 84.0 °F 28.9 °F 14% 29.82 in 10.0 mi NW 16.1 mph 21.9 mph N/A   Clear
5:56 PM 82.0 °F 30.0 °F 15% 29.82 in 10.0 mi WNW 13.8 mph 20.7 mph N/A   Clear
6:56 PM 75.9 °F 27.0 °F 16% 29.83 in 10.0 mi WNW 13.8 mph - N/A   Clear
7:56 PM 71.1 °F 24.1 °F 17% 29.86 in 10.0 mi West 10.4 mph - N/A   Clear
8:56 PM 68.0 °F 23.0 °F 18% 29.90 in 10.0 mi West 10.4 mph - N/A   Clear
9:56 PM 66.9 °F 25.0 °F 21% 29.90 in 10.0 mi WSW 10.4 mph - N/A   Clear
10:56 PM 66.0 °F 26.1 °F 22% 29.88 in 10.0 mi West 10.4 mph - N/A   Clear
11:56 PM 66.0 °F 26.1 °F 22% 29.87 in 10.0 mi Calm Calm - N/A   Clear